Location: Avully
(45.9633°N, 6.0228°E)
Time: 13:15:15
(UTC+00:00)

Cosmos 1190 Rocket - Pass Details

Date: 23 May 2024
Orbit: 754 x 778 km, 74.1° (Epoch: 16 June)

Event Time Altitude Azimuth Distance (km) Brightness Sun altitude
Exits shadow 00:51:12 38° 240° (WSW) 1,171 4.6 -21.1°
Maximum altitude 00:52:56 55° 296° (WNW) 926 4.4 -21.0°
Drops below altitude 10° 00:58:09 10° 14° (NNE) 2,336 7.7 -20.6°
Sets 01:00:37 0° 19° (NNE) 3,270 8.9 -20.5°
